EDW78 LSZH-FSIA

Flight info

Callsign EDW78
Flight time N/A
Altitude 37000
Route DEGES Z2 XEBIX L607 ELMEM N606 GIRIS DCT NIVAS DCT PEVAL DCT AIOSA DCT LATAN DCT SALUN/N0479F390 N705 BOPIX N710 TAKRI P751 LXR M999 JDW G650 RASKA/N0484F400 G650 ULONI UG650 ASM/N0483F390 UA451 EKBOR/N0482F410 UA451 SB UR775 HARGA/N0480F400 UM651 MURAL/N0480F410 UG651 KUSUB UM651 ESTOK DCT IMSES DCT ETLOS T155 ROUTY
Aircraft A359/H-SABDE2E3GHIJ2J3J4J5M1P2RWXYZ/LB1D1

Departure

Time 2026-05-04 01:53
Airport Zürich Airport (LSZH)

Arrival

Time N/A
Airport Seychelles International Airport (FSIA)
Time Latitude Longitude Altitude Speed Heading
2026-05-04 01:27 47.46167 8.55684 1403 ft 0 kts 186°
2026-05-04 01:43 47.46172 8.55685 1405 ft 4 kts 185°
2026-05-04 01:44 47.46199 8.55685 1403 ft 4 kts 171°
2026-05-04 01:44 47.46225 8.55675 1403 ft 4 kts 149°
2026-05-04 01:44 47.46243 8.55650 1405 ft 4 kts 109°
2026-05-04 01:44 47.46245 8.55637 1406 ft 0 kts 96°
2026-05-04 01:45 47.46244 8.55636 1404 ft 0 kts 96°
2026-05-04 01:50 47.46244 8.55652 1409 ft 5 kts 95°
2026-05-04 01:50 47.46238 8.55740 1409 ft 12 kts 95°
2026-05-04 01:51 47.46229 8.55879 1405 ft 15 kts 96°
2026-05-04 01:51 47.46188 8.56021 1415 ft 15 kts 133°
2026-05-04 01:51 47.46108 8.56131 1417 ft 17 kts 137°
2026-05-04 01:51 47.46053 8.56282 1414 ft 17 kts 76°
2026-05-04 01:52 47.46142 8.56392 1407 ft 14 kts 360°
2026-05-04 01:52 47.46219 8.56324 1411 ft 14 kts 317°
2026-05-04 01:52 47.46404 8.56068 1410 ft 82 kts 317°
2026-05-04 01:52 47.47075 8.55161 1510 ft 167 kts 319°
2026-05-04 01:53 47.48024 8.53972 2404 ft 188 kts 326°
2026-05-04 01:53 47.49183 8.52762 3392 ft 218 kts 325°
2026-05-04 01:53 47.50503 8.51381 4230 ft 251 kts 326°
2026-05-04 01:53 47.52051 8.49769 4967 ft 294 kts 326°
2026-05-04 01:54 47.53839 8.47915 5606 ft 333 kts 326°
2026-05-04 01:54 47.55850 8.45838 6111 ft 372 kts 326°
2026-05-04 01:54 47.58057 8.43565 6484 ft 397 kts 326°
2026-05-04 01:54 47.60369 8.41190 6778 ft 412 kts 325°
2026-05-04 01:55 47.62755 8.38741 7038 ft 423 kts 324°